#timestamp,LO_Frequency,Hit,StdDev 
1594738815.8,286046999.9,N
1594738835.7,286047002.4,N
1594738855.5,286047002.8,N
1594738875.3,286047000.2,N
1594738895.2,286047002.8,N
1594738915.9,286047001.8,N
1594738935.7,286047005.6,Y
1594738955.6,286047002.9,P
1594738975.4,286047004.1,P
1594738995.3,286047004.2,P
1594739015.1,286047003.6,N
1594739016.0,286047003.6,N
1594739035.8,286047004.1,Y
1594739055.7,286047000.8,P
1594739075.5,286047000.1,N
1594739095.3,286047000.3,N
1594739115.2,286047000.1,N
1594739135.0,286047000.6,N
1594739135.9,286047000.6,N
1594739155.8,286047000.4,N
1594739175.6,286047001.7,N
1594739195.4,286047001.4,N
1594739215.3,286047001.7,N
1594739235.1,286047000.2,N
1594739255.8,286047002.4,N
1594739275.7,286046998.1,N
1594739295.5,286046998.8,N
1594739315.4,286046996.9,N
1594739335.2,286046998.9,N
1594739355.0,286046999.6,N
1594739355.9,286046999.6,N
1594739375.8,286047001.1,N
1594739395.6,286046999.9,N
1594739415.4,286047001.1,N
1594739435.3,286047000.3,N
1594739455.1,286047002.7,N
1594739475.9,286047000.1,N
1594739495.7,286047000.6,N
1594739515.5,286047000.3,N
1594739535.4,286046998.6,N
1594739555.2,286047001.0,N
1594739575.0,286047000.0,N
1594739575.9,286047000.0,N
1594739595.8,286047000.4,N
1594739615.6,286047000.7,N
1594739635.5,286047001.1,N
1594739655.3,286046998.3,N
1594739675.1,286046998.3,N
1594739695.9,286046996.5,N
1594739715.7,286046999.5,N
1594739735.5,286046997.1,N
1594739755.4,286046999.5,N
1594739775.2,286046998.2,N
1594739795.1,286046998.5,N
1594739796.0,286046998.5,N
1594739815.8,286046998.0,N
1594739835.6,286046995.1,Y
1594739855.5,286046996.4,P
1594739875.3,286046995.1,P
1594739895.1,286046998.0,N
1594739915.9,286046996.4,N
1594739935.7,286046996.2,N
1594739955.6,286046995.7,Y
1594739975.4,286046999.0,P
1594739995.2,286046998.7,N
1594740015.1,286046998.1,N
1594740016.0,286046998.1,N
1594740035.8,286046998.7,N
1594740055.7,286046999.4,N
1594740075.5,286046999.5,N
1594740095.3,286046999.1,N
1594740115.2,286046999.6,N
1594740135.9,286046997.2,Y
1594740155.7,286046999.1,P
1594740175.6,286046999.3,P
1594740195.4,286046999.4,N
1594740215.3,286046999.6,N
1594740235.1,286046998.8,Y
1594740236.0,286046998.8,P
1594740255.8,286047000.6,N
1594740275.7,286047000.8,N
1594740295.5,286047001.2,N
1594740315.3,286046999.9,N
1594740335.2,286046998.5,N
1594740355.0,286047000.7,N
1594740355.9,286047000.7,N
1594740375.8,286047001.0,N
1594740395.6,286046998.1,N
1594740415.4,286046998.4,N
1594740435.3,286046998.9,N
1594740455.1,286046998.8,N
1594740475.8,286046996.5,Y
1594740495.7,286046999.0,P
1594740515.5,286046998.3,P
1594740535.4,286047000.7,N
1594740555.2,286047000.7,N
1594740575.0,286047001.0,N
1594740575.9,286047001.0,N
1594740595.8,286047000.9,N
1594740615.6,286047001.1,N
1594740635.4,286046998.4,N
1594740655.3,286047000.5,N
1594740675.1,286046998.6,N
1594740695.9,286046998.8,N
1594740715.7,286046999.0,N
1594740735.5,286046999.1,N
1594740755.4,286046998.8,N
1594740775.2,286046998.6,N
1594740795.0,286046999.0,N
1594740795.9,286046999.0,N
1594740815.8,286046998.9,N
1594740835.6,286047000.7,N
1594740855.5,286046998.6,N
1594740875.3,286046999.4,N
1594740895.1,286046998.4,N
1594740915.9,286046998.9,N
1594740935.7,286046998.9,N
1594740955.5,286046999.1,N
1594740975.4,286046998.7,N
1594740995.2,286046998.9,N
1594741045.1,286047000.8,E
1594741055.0,286046999.0,N
1594741055.9,286046999.0,P
1594741075.7,286046996.6,P
1594741095.6,286046998.7,N
1594741115.4,286046998.3,N
1594741135.3,286046998.7,N
1594741155.1,286047001.2,N
1594741156.0,286047001.2,N
1594741175.8,286046998.5,N
1594741195.7,286046998.4,N
1594741215.5,286046998.4,N
1594741235.3,286046998.9,N
1594741255.2,286046998.8,N
1594741275.0,286046996.9,N
1594741275.9,286046996.9,N
1594741295.8,286046996.6,N
1594741315.6,286046998.3,N
1594741335.4,286046996.5,N
1594741355.3,286046997.0,N
1594741375.1,286046996.8,N
1594741395.8,286046997.7,N
1594741415.7,286046997.1,N
1594741435.5,286046999.6,N
1594741455.4,286046999.4,N
1594741475.2,286046999.2,N
1594741495.0,286046999.4,N
1594741495.9,286046999.4,N
1594741515.8,286046999.6,N
1594741535.6,286046997.0,N
1594741555.5,286046999.5,N
1594741575.3,286046997.6,N
1594741595.1,286046995.1,Y
1594741615.9,286046999.1,P
1594741635.7,286046996.5,P
1594741655.5,286046999.0,N
1594741675.4,286047000.9,N
1594741695.2,286047000.5,N
1594741715.1,286046998.2,N
1594741716.0,286046998.2,N
1594741735.8,286047000.7,N
1594741755.6,286047001.2,N
1594741775.5,286047000.6,N
1594741795.3,286047000.5,N
1594741815.1,286047000.1,N
1594741835.9,286047000.2,N
1594741855.7,286047000.5,N
1594741875.6,286047000.7,N
1594741895.4,286047000.7,N
1594741915.2,286047000.3,N
1594741935.1,286047000.0,N
1594741936.0,286047000.0,N
1594741955.8,286047000.4,N
1594741975.6,286047000.5,N
1594741995.5,286047002.7,N
1594742015.3,286047000.4,N
1594742035.2,286047000.0,N
1594742055.9,286047000.9,N
1594742075.7,286047001.0,N
1594742095.6,286047000.8,N
1594742115.4,286046998.1,N
1594742135.2,286046998.8,N
1594742155.1,286047001.0,N
1594742156.0,286047001.0,N
1594742175.8,286046999.2,N
1594742195.7,286046999.0,N
1594742215.5,286047001.1,N
1594742235.3,286047001.2,N
1594742255.2,286046998.1,N
1594742275.0,286046999.5,N
1594742275.9,286046999.5,N
1594742295.8,286046996.5,Y
1594742345.6,286046997.7,E
1594742355.5,286046997.0,N
1594742375.4,286046999.2,P
1594742395.2,286046997.0,N
